Location: Columbia
(38.9520°N, 92.3340°W)
Time: 19:57:23
(UTC-05:00)

Iridium 52 - Visible Passes

Search period start: 05 July 2015 00:00
Search period end: 15 July 2015 00:00
Orbit: 776 x 779 km, 86.4° (Epoch: 05 July)

Date Brightness Start Highest point End Pass type
(mag) Time Alt. Az. Time Alt. Az. Time Alt. Az.
05 Jul 7.3 00:53:12 29° E 00:53:12 29° E 00:57:28 10° NNE visible
05 Jul 7.2 02:33:40 29° W 02:33:40 29° W 02:38:09 10° NNW visible
06 Jul 8.0 00:19:47 16° ENE 00:19:47 16° ENE 00:22:52 10° NE visible
06 Jul 6.4 02:00:16 53° WNW 02:00:16 53° WNW 02:05:04 10° N visible
07 Jul 6.1 01:26:51 73° NNE 01:26:51 73° NNE 01:31:39 10° N visible
07 Jul 8.3 03:07:19 10° WNW 03:07:58 10° WNW 03:08:47 10° WNW visible
08 Jul 6.8 00:53:26 42° ENE 00:53:26 42° ENE 00:57:53 10° NNE visible
08 Jul 7.7 02:33:54 20° WNW 02:33:58 20° WNW 02:37:41 10° NNW visible
09 Jul 7.6 00:20:00 23° ENE 00:20:00 23° ENE 00:23:43 10° NNE visible
09 Jul 7.0 02:00:28 36° WNW 02:00:28 36° WNW 02:04:56 10° NNW visible
09 Jul 8.2 23:46:34 12° ENE 23:46:34 12° ENE 23:48:33 10° NE visible
10 Jul 6.3 01:27:02 64° NW 01:27:02 64° NW 01:31:43 10° N visible
11 Jul 6.4 00:53:36 58° NE 00:53:36 58° NE 00:58:09 10° N visible
11 Jul 8.2 02:34:04 14° WNW 02:34:19 14° WNW 02:36:48 10° NW visible
12 Jul 7.1 00:20:09 33° ENE 00:20:09 33° ENE 00:24:15 10° NNE visible
12 Jul 7.5 02:00:37 25° WNW 02:00:37 25° WNW 02:04:37 10° NNW visible
12 Jul 7.8 23:46:42 18° ENE 23:46:42 18° ENE 23:49:49 10° NE visible
13 Jul 6.7 01:27:10 45° WNW 01:27:10 45° WNW 01:31:39 10° N visible
14 Jul 6.2 00:53:42 69° N 00:53:42 69° N 00:58:17 10° N visible
